Weather History for KOLV - February, 2014

Change the Weather History Date:

Wednesday, February 19, 2014

  Actual Average (KMEM) Record (KMEM)
Temperature  
Mean Temperature 60 °F 47 °F  
Max Temperature 64 °F 56 °F 76 °F (1986)
Min Temperature 57 °F 37 °F 9 °F (1958)
Degree Days  
Heating Degree Days 4 18  
Month to date heating degree days 394  
Since 1 July heating degree days 2296  
Cooling Degree Days 0 0  
Month to date cooling degree days 0  
Year to date cooling degree days 1  
Growing Degree Days 10 (Base 50)    
Moisture  
Dew Point 59 °F    
Average Humidity 93    
Maximum Humidity 100    
Minimum Humidity 55    
Precipitation  
Precipitation 0.06 in 0.16 in 1.99 in (1991)
Month to date precipitation 2.93  
Year to date precipitation 6.91  
Snow  
Snow 0.00 in 0.00 in 2.00 in (1921)
Month to date snowfall 1.0  
Since 1 July snowfall 3.1  
Snow Depth -    
Sea Level Pressure  
Sea Level Pressure 29.95 in    
Wind  
Wind Speed 11 mph (SSW)    
Max Wind Speed 21 mph    
Max Gust Speed 26 mph    
Visibility 9 miles    
Events      
T = Trace of Precipitation, MM = Missing Value Source: NWS Daily Summary

Daily Weather History Graph

Daily Weather History Graph

Search for Another Location

Airport or City:

Trip Planner

Search our weather history database for the weather conditions in past years. The results will help you decide how hot, cold, wet, or windy it might be!

Date:

Astronomy

Feb. 19, 2014 Rise Set
Actual Time 6:40 AM CST 5:45 PM CST
Civil Twilight 6:14 AM CST 6:11 PM CST
Nautical Twilight 5:45 AM CST 6:41 PM CST
Astronomical Twilight 5:16 AM CST 7:10 PM CST
Moon 10:26 PM CST (2/19) 8:58 AM CST (2/19)
Length of Visible Light 11h 56m
Length of Day
11h 05m
Waning Gibbous, 79% of the Moon is Illuminated
Feb 19
Waning Gibbous
Feb 22
Last Quarter
Mar 1
New
Mar 8
First Quarter
Mar 16
Full

Hourly Weather History & Observations

Time (CST) Temp. Dew Point Humidity Pressure Visibility Wind Dir Wind Speed Gust Speed Precip Events Conditions
12:15 AM 64.4 °F 62.6 °F 94% 29.93 in 10.0 mi SSW 20.7 mph 26.5 mph 0.00 in   Scattered Clouds
12:35 AM 62.6 °F 62.6 °F 100% 29.93 in 10.0 mi SW 13.8 mph 21.9 mph 0.00 in   Scattered Clouds
12:55 AM 62.6 °F 62.6 °F 100% 29.94 in 10.0 mi SSW 16.1 mph 24.2 mph 0.00 in   Scattered Clouds
1:15 AM 62.6 °F 62.6 °F 100% 29.94 in 9.0 mi SW 12.7 mph - 0.00 in   Mostly Cloudy
1:35 AM 62.6 °F 62.6 °F 100% 29.93 in 5.0 mi SW 18.4 mph 21.9 mph 0.00 in   Mostly Cloudy
1:55 AM 60.8 °F 60.8 °F 100% 29.94 in 5.0 mi SSW 16.1 mph - 0.06 in   Overcast
2:15 AM 60.8 °F 60.8 °F 100% 29.94 in 10.0 mi SW 11.5 mph - 0.00 in   Mostly Cloudy
2:35 AM 60.8 °F 60.8 °F 100% 29.94 in 9.0 mi SW 11.5 mph - 0.00 in   Partly Cloudy
2:55 AM 60.8 °F 60.8 °F 100% 29.94 in 10.0 mi SW 12.7 mph - 0.00 in   Partly Cloudy
3:15 AM 60.8 °F 60.8 °F 100% 29.94 in 10.0 mi SW 12.7 mph - 0.00 in   Partly Cloudy
3:35 AM 59.0 °F 59.0 °F 100% 29.94 in 10.0 mi SW 8.1 mph - 0.00 in   Partly Cloudy
3:55 AM 59.0 °F 59.0 °F 100% 29.95 in 10.0 mi SW 6.9 mph - 0.00 in   Partly Cloudy
4:15 AM 59.0 °F 59.0 °F 100% 29.96 in 9.0 mi SW 8.1 mph - 0.00 in   Mostly Cloudy
4:35 AM 59.0 °F 59.0 °F 100% 29.96 in 10.0 mi SW 8.1 mph - 0.00 in   Overcast
4:55 AM 59.0 °F 59.0 °F 100% 29.97 in 9.0 mi SW 8.1 mph - 0.00 in   Overcast
5:15 AM 60.8 °F 60.8 °F 100% 29.97 in 8.0 mi SW 8.1 mph - 0.00 in   Overcast
5:35 AM 60.8 °F 60.8 °F 100% 29.97 in 7.0 mi SSW 9.2 mph - 0.00 in   Overcast
5:55 AM 59.0 °F 59.0 °F 100% 29.97 in 8.0 mi SW 10.4 mph - 0.00 in   Overcast
6:15 AM 59.0 °F 59.0 °F 100% 29.98 in 9.0 mi SW 8.1 mph - 0.00 in   Overcast
6:35 AM 60.8 °F 60.8 °F 100% 29.99 in 10.0 mi SW 6.9 mph - 0.00 in   Overcast
7:33 AM 60.8 °F 60.8 °F 100% 30.01 in 5.0 mi SSW 5.8 mph - N/A   Overcast
7:50 AM 60.8 °F 60.8 °F 100% 30.02 in 6.0 mi WNW 8.1 mph - N/A   Overcast
8:30 AM 59.0 °F 59.0 °F 100% 30.04 in 5.0 mi WNW 8.1 mph - N/A   Overcast
8:50 AM 59.0 °F 59.0 °F 100% 30.04 in 5.0 mi North 8.1 mph - N/A   Overcast
9:10 AM 57.2 °F 57.2 °F 100% 30.05 in 7.0 mi NNE 8.1 mph - N/A   Overcast
9:50 AM 60.8 °F 53.6 °F 77% 30.06 in 7.0 mi NNE 8.1 mph - N/A   Mostly Cloudy
10:50 AM 60.8 °F 48.2 °F 63% 30.03 in 10.0 mi NE 5.8 mph - N/A   Mostly Cloudy
11:50 AM 62.6 °F 46.4 °F 55% 30.02 in 10.0 mi North 4.6 mph - N/A   Mostly Cloudy
12:50 PM 64.4 °F 48.2 °F 56% 29.99 in 10.0 mi Calm Calm - N/A   Mostly Cloudy
1:50 PM 64.4 °F 48.2 °F 56% 29.96 in 10.0 mi Calm Calm - N/A   Mostly Cloudy
2:50 PM 64.4 °F 48.2 °F 56% 29.95 in 10.0 mi ESE 4.6 mph - N/A   Overcast
3:50 PM 64.4 °F 51.8 °F 64% 29.96 in 9.0 mi Calm Calm - N/A   Overcast
4:50 PM 64.4 °F 57.2 °F 77% 29.94 in 9.0 mi Calm Calm - N/A   Overcast
5:50 PM 62.6 °F 62.6 °F 100% 29.94 in 7.0 mi South 5.8 mph - N/A   Overcast
6:50 PM 60.8 °F 60.8 °F 100% 29.93 in 7.0 mi SE 5.8 mph - N/A   Overcast
7:50 PM 60.8 °F 60.8 °F 100% 29.90 in 7.0 mi SE 9.2 mph - N/A   Mostly Cloudy
8:55 PM 60.8 °F 60.8 °F 100% 29.90 in 8.0 mi SE 8.1 mph - 0.00 in   Mostly Cloudy
9:15 PM 60.8 °F 60.8 °F 100% 29.89 in 10.0 mi SE 8.1 mph - 0.00 in   Overcast
9:35 PM 60.8 °F 60.8 °F 100% 29.89 in 10.0 mi SE 8.1 mph - 0.00 in   Overcast
9:55 PM 60.8 °F 60.8 °F 100% 29.89 in 10.0 mi SE 8.1 mph - 0.00 in   Mostly Cloudy
10:35 PM 60.8 °F 60.8 °F 100% 29.87 in 9.0 mi SE 10.4 mph - 0.00 in   Clear
10:55 PM 60.8 °F 60.8 °F 100% 29.86 in 10.0 mi SE 9.2 mph - 0.00 in   Clear
11:15 PM 60.8 °F 60.8 °F 100% 29.85 in 10.0 mi SSE 10.4 mph 17.3 mph 0.00 in   Partly Cloudy
11:35 PM 60.8 °F 60.8 °F 100% 29.85 in 10.0 mi SSE 12.7 mph - 0.00 in   Mostly Cloudy
11:55 PM 60.8 °F 60.8 °F 100% 29.85 in 10.0 mi SSE 12.7 mph - 0.00 in   Mostly Cloudy